Hourly Weather Roundup
Issued by NWS Central Illinois

Home | Current Version | Previous Version | Text Only | Print | Product List | Glossary On
Versions: 1 2 3 4 5 6 7 8 9 10 11 12 13 14 15 16 17 18 19 20 21 22 23 24 25 26 27 28 29 30 31 32 33 34 35 36 37 38 39 40 41 42 43 44 45 46 47 48 49 50
000
NZUS43 KILX 182010
HWRILX

AREA WEATHER ROUNDUP
NATIONAL WEATHER SERVICE, LINCOLN IL
200 PM CST SAT FEB 18 2017


CITY           SKY/WX    TMP DP  RH WIND       PRES   REMARKS
BLOOMINGTON    MOSUNNY   64  41  42 W12       29.75F
CHAMPAIGN      MOSUNNY   68  40  35 SW13      29.75F
DANVILLE       PTSUNNY   66  42  41 SW12      29.73S
DECATUR        SUNNY     67  40  37 W10       29.75F
EFFINGHAM      PTSUNNY   63  47  56 SW10      29.81R
FLORA          MOSUNNY   62  46  56 SW15      29.81S
GALESBURG      SUNNY     66  40  38 CALM      29.75S
JACKSONVILLE   SUNNY     64  41  43 SW12      29.76F
LACON          SUNNY     66  41  40 CALM      29.73F
LAWRENCEVILLE  CLOUDY    62  45  53 W10       29.82S
LITCHFIELD     CLOUDY    58  44  61 W8        29.79S
$$


CITY           SKY/WX    TMP DP  RH WIND       PRES   REMARKS
LINCOLN        SUNNY     67  43  41 W3        29.74F
MACOMB         SUNNY     65  40  39 W6        29.77F
MATTOON        MOSUNNY   62  44  51 SW6       29.77F
MT CARMEL AP   CLOUDY    60  44  56 SW13      29.82S
OLNEY-NOBLE AP CLOUDY    61  46  59 S8        29.81F
PARIS          PTSUNNY   62  44  51 SW13      29.77F
PEORIA         SUNNY     66  40  38 W8        29.74F
PONTIAC        SUNNY     65  43  44 W10G18    29.74F
RANTOUL        MOSUNNY   65  42  43 SW12      29.74F
SPRINGFIELD    SUNNY     67  41  38 SW10      29.75F
TAYLORVILLE    MOSUNNY   63  43  48 SW14      29.77F
$$

...REGIONAL REPORTS...


CITY           SKY/WX    TMP DP  RH WIND       PRES   REMARKS
CHICAGO O`HARE MOSUNNY   69  33  26 W12       29.69F
KANKAKEE       SUNNY     65  42  41 SW9       29.74S
MOLINE         SUNNY     67  31  26 VRB3      29.73F
MOUNT STERLING SUNNY     66  40  38 W5        29.75F
MOUNT VERNON   LGT RAIN  54  51  90 SW12      29.84S
PITTSFIELD     SUNNY     65  44  45 S7        29.77F
QUINCY         SUNNY     66  40  38 W6        29.76F
ROCKFORD       MOSUNNY   66  39  37 NW6       29.74F
$$


CITY           SKY/WX    TMP DP  RH WIND       PRES   REMARKS
BURLINGTON     SUNNY     66  40  38 CALM      29.74F
CEDAR RAPIDS   SUNNY     61  38  42 NW5       29.76F
DES MOINES     MOSUNNY   64  33  31 VRB5      29.78F
KIRKSVILLE     SUNNY     67  37  33 NW5       29.77F
OTTUMWA        SUNNY     65  34  31 N8        29.77F
ST LOUIS       LGT RAIN  61  44  53 SW8       29.81F
$$


CITY           SKY/WX    TMP DP  RH WIND       PRES   REMARKS
TERRE HAUTE    MOSUNNY   65  41  41 SW10      29.78F
EVANSVILLE     LGT RAIN  52  49  89 SW8       29.87R
INDIANAPOLIS   PTSUNNY   63  40  42 SW15      29.78S
LAFAYETTE      CLOUDY    64  42  44 W9        29.74F
MADISON        PTSUNNY   61  40  45 W5        29.72S
MILWAUKEE      MOSUNNY   66  37  34 NW10      29.70S
$$






USA.gov is the U.S. government's official web portal to all federal, state and local government web resources and services.